This is the latest recevied weather packets stored in our database for station/object ZL2ASC-13. If no packets are shown the sender has not sent any weather packets the latest 10 day(s).
| Time | Temp. | Humidity | Pressure | Rain* | Wind** | Luminosity | Snow |
|---|---|---|---|---|---|---|---|
| 1787447427 | 13.89° C | 56% | 1012 hPa | 0 mm | - | - | - |
| 1787447367 | 13.89° C | 56% | 1011.9 hPa | 0 mm | - | - | - |
| 1787447307 | 13.89° C | 53% | 1011.9 hPa | 0 mm | - | - | - |
| 1787447247 | 13.89° C | 54% | 1011.9 hPa | 0 mm | - | - | - |
| 1787447187 | 14.44° C | 55% | 1011.8 hPa | 0 mm | - | - | - |
| 1787447127 | 14.44° C | 53% | 1011.7 hPa | 0 mm | - | - | - |
| 1787447067 | 14.44° C | 54% | 1011.9 hPa | 0 mm | - | - | - |
| 1787447007 | 13.89° C | 53% | 1011.7 hPa | 0 mm | - | - | - |
| 1787446946 | 14.44° C | 54% | 1011.7 hPa | 0 mm | - | - | - |
| 1787446886 | 14.44° C | 54% | 1011.7 hPa | 0 mm | - | - | - |
| 1787446826 | 14.44° C | 55% | 1011.6 hPa | 0 mm | - | - | - |
| 1787446766 | 14.44° C | 56% | 1011.5 hPa | 0 mm | - | - | - |
| 1787446706 | 14.44° C | 55% | 1011.4 hPa | 0 mm | - | - | - |
| 1787446646 | 14.44° C | 56% | 1011.5 hPa | 0 mm | - | - | - |
| 1787446586 | 14.44° C | 55% | 1011.3 hPa | 0 mm | - | - | - |
| 1787446526 | 14.44° C | 56% | 1011.4 hPa | 0 mm | - | - | - |
| 1787446466 | 14.44° C | 54% | 1011.4 hPa | 0 mm | - | - | - |
| 1787446406 | 14.44° C | 52% | 1011.3 hPa | 0 mm | - | - | - |
| 1787446346 | 14.44° C | 54% | 1011.5 hPa | 0 mm | - | - | - |
| 1787446286 | 14.44° C | 53% | 1011.4 hPa | 0 mm | - | - | - |
| 1787446226 | 14.44° C | 52% | 1011.4 hPa | 0 mm | - | - | - |
| 1787446166 | 14.44° C | 54% | 1011.3 hPa | 0 mm | - | - | - |
| 1787446106 | 14.44° C | 54% | 1011.3 hPa | 0 mm | - | - | - |
| 1787446046 | 14.44° C | 52% | 1011.4 hPa | 0 mm | - | - | - |
| 1787445986 | 14.44° C | 52% | 1011.3 hPa | 0 mm | - | - | - |
* Rain latest hour (hover to see other rain measurements)
** Current wind speed in m/s (hover to see current wind gust speed)